This is the latest recevied weather packets stored in our database for station/object VE3MNX. If no packets are shown the sender has not sent any weather packets the latest 10 day(s).
| Time | Temp. | Humidity | Pressure | Rain* | Wind** | Luminosity | Snow |
|---|---|---|---|---|---|---|---|
| 1777783994 | 5° C | 64% | 1014.7 hPa | 0 mm | - | - | - |
| 1777783094 | 5° C | 65% | 1014.9 hPa | 0 mm | - | - | - |
| 1777782195 | 5° C | 64% | 1015.2 hPa | 0 mm | - | - | - |
| 1777781293 | 5° C | 65% | 1014.9 hPa | 0 mm | - | - | - |
| 1777780394 | 5° C | 64% | 1015.2 hPa | 0 mm | - | - | - |
| 1777779495 | 5.56° C | 63% | 1015.2 hPa | 0 mm | - | - | - |
| 1777778593 | 5.56° C | 70% | 1015.2 hPa | 0 mm | - | - | - |
| 1777777693 | 6.11° C | 71% | 1015.6 hPa | 0 mm | - | - | - |
| 1777776793 | 6.11° C | 77% | 1015.2 hPa | 0 mm | - | - | - |
| 1777775893 | 6.11° C | 78% | 1015.6 hPa | 0 mm | - | - | - |
| 1777774994 | 6.67° C | 78% | 1015.6 hPa | 0 mm | - | - | - |
| 1777774094 | 6.67° C | 76% | 1015.6 hPa | 0 mm | - | - | - |
| 1777773194 | 6.67° C | 83% | 1015.6 hPa | 0 mm | - | - | - |
| 1777772294 | 6.67° C | 78% | 1015.2 hPa | 0 mm | - | - | - |
| 1777771393 | 6.67° C | 77% | 1015.6 hPa | 0 mm | - | - | - |
| 1777770493 | 6.67° C | 78% | 1015.6 hPa | 0 mm | - | - | - |
| 1777769593 | 6.67° C | 72% | 1015.2 hPa | 0 mm | - | - | - |
| 1777768693 | 6.67° C | 73% | 1015.2 hPa | 0 mm | - | - | - |
| 1777767798 | 6.67° C | 70% | 1015.3 hPa | 0 mm | - | - | - |
| 1777766894 | 6.67° C | 69% | 1015.2 hPa | 0 mm | - | - | - |
| 1777765994 | 7.22° C | 59% | 1015 hPa | 0 mm | - | - | - |
| 1777765094 | 7.22° C | 59% | 1015.2 hPa | 0 mm | - | - | - |
| 1777764193 | 7.78° C | 55% | 1015.2 hPa | 0 mm | - | - | - |
| 1777763292 | 7.78° C | 54% | 1014.9 hPa | 0 mm | - | - | - |
| 1777762393 | 7.78° C | 55% | 1015.2 hPa | 0 mm | - | - | - |
* Rain latest hour (hover to see other rain measurements)
** Current wind speed in m/s (hover to see current wind gust speed)